| time (UTC) | temp F | wind direction | speed MPH | gust MPH | rain 1hr in | rain 24hr in | rain mn in | humidity % | barometer mb |
| 20260906224507 | 63 | 94 | 0.0 | 0.0 | 0.00 | 0.07 | 0.07 | 68 | 1017.9 |
| 20260906223006 | 64 | 94 | 0.0 | 0.0 | 0.00 | 0.07 | 0.07 | 67 | 1017.9 |
| 20260906221506 | 67 | 94 | 0.0 | 0.0 | 0.00 | 0.07 | 0.07 | 62 | 1017.8 |
| 20260906220005 | 70 | 17 | 0.0 | 0.0 | 0.00 | 0.07 | 0.07 | 50 | 1017.6 |
| 20260906214504 | 70 | 328 | 0.0 | 0.0 | 0.00 | 0.07 | 0.07 | 45 | 1017.6 |
| 20260906213003 | 70 | 101 | 0.0 | 0.0 | 0.00 | 0.07 | 0.07 | 48 | 1017.5 |
| 20260906211508 | 70 | 105 | 0.0 | 0.0 | 0.00 | 0.07 | 0.07 | 48 | 1017.4 |
| 20260906210002 | 70 | 105 | 0.0 | 0.0 | 0.00 | 0.07 | 0.07 | 45 | 1017.4 |
| 20260906204502 | 70 | 234 | 0.0 | 0.0 | 0.00 | 0.07 | 0.07 | 49 | 1017.4 |
| 20260906203101 | 71 | 108 | 0.0 | 0.0 | 0.00 | 0.07 | 0.07 | 49 | 1017.4 |
| 20260906201700 | 70 | 239 | 0.0 | 0.0 | 0.00 | 0.07 | 0.07 | 44 | 1017.3 |
| 20260906200059 | 71 | 24 | 0.0 | 0.0 | 0.00 | 0.07 | 0.07 | 44 | 1017.2 |
| 20260906194558 | 71 | 96 | 0.0 | 0.0 | 0.00 | 0.08 | 0.07 | 44 | 1017.1 |
| 20260906193056 | 72 | 58 | 0.0 | 0.0 | 0.00 | 0.08 | 0.07 | 43 | 1017.2 |
| 20260906191556 | 71 | 132 | 0.0 | 0.0 | 0.00 | 0.08 | 0.07 | 45 | 1017.3 |
| 20260906190055 | 72 | 241 | 0.0 | 0.0 | 0.00 | 0.08 | 0.07 | 45 | 1017.6 |
| 20260906184557 | 71 | 60 | 0.0 | 0.0 | 0.00 | 0.11 | 0.07 | 49 | 1017.7 |
| 20260906183052 | 71 | 34 | 0.0 | 0.0 | 0.00 | 0.11 | 0.07 | 54 | 1017.7 |
| 20260906181553 | 71 | 260 | 0.0 | 0.0 | 0.00 | 0.11 | 0.07 | 58 | 1017.9 |
| 20260906174548 | 70 | 333 | 0.0 | 0.0 | 0.00 | 0.11 | 0.07 | 59 | 1018.1 |
| 20260906173044 | 69 | 6 | 0.0 | 0.0 | 0.00 | 0.11 | 0.07 | 66 | 1018.3 |
| 20260906171548 | 68 | 96 | 0.0 | 0.0 | 0.00 | 0.11 | 0.07 | 67 | 1018.6 |
| 20260906170054 | 68 | 297 | 0.0 | 0.0 | 0.00 | 0.11 | 0.07 | 72 | 1018.6 |
| 20260906164540 | 68 | 105 | 0.0 | 0.0 | 0.00 | 0.11 | 0.07 | 70 | 1018.7 |
| 20260906163043 | 67 | 89 | 0.0 | 0.0 | 0.00 | 0.11 | 0.07 | 75 | 1018.9 |
| 20260906161539 | 67 | 326 | 0.0 | 0.0 | 0.00 | 0.11 | 0.07 | 78 | 1019.0 |
| 20260906160040 | 67 | 108 | 0.0 | 0.0 | 0.00 | 0.11 | 0.07 | 77 | 1019.1 |
| 20260906154536 | 66 | 80 | 0.0 | 0.0 | 0.00 | 0.11 | 0.07 | 76 | 1019.4 |
| 20260906153031 | 65 | 226 | 0.0 | 0.0 | 0.00 | 0.11 | 0.07 | 79 | 1019.5 |
| 20260906151530 | 64 | 94 | 0.0 | 0.0 | 0.00 | 0.11 | 0.07 | 82 | 1019.6 |
| 20260906150030 | 64 | 84 | 0.0 | 0.0 | 0.00 | 0.11 | 0.07 | 82 | 1019.7 |
| 20260906144529 | 62 | 35 | 0.0 | 0.0 | 0.00 | 0.11 | 0.07 | 86 | 1019.9 |
| 20260906143029 | 62 | 35 | 0.0 | 0.0 | 0.00 | 0.11 | 0.07 | 84 | 1019.9 |
| 20260906141519 | 61 | 74 | 0.0 | 0.0 | 0.00 | 0.11 | 0.07 | 87 | 1019.9 |
| 20260906140030 | 61 | 74 | 0.0 | 0.0 | 0.00 | 0.11 | 0.07 | 89 | 1019.8 |
| 20260906134518 | 61 | 74 | 0.0 | 0.0 | 0.00 | 0.11 | 0.07 | 89 | 1019.9 |
| 20260906133016 | 61 | 74 | 0.0 | 0.0 | 0.00 | 0.11 | 0.07 | 90 | 1019.9 |
| 20260906131530 | 60 | 345 | 0.0 | 0.0 | 0.00 | 0.11 | 0.07 | 91 | 1019.9 |
| 20260906130012 | 59 | 319 | 0.0 | 0.0 | 0.00 | 0.11 | 0.07 | 93 | 1019.7 |
| 20260906124510 | 58 | 103 | 0.0 | 0.0 | 0.00 | 0.11 | 0.07 | 94 | 1019.8 |
| 20260906123009 | 58 | 355 | 0.0 | 0.0 | 0.00 | 0.11 | 0.07 | 95 | 1019.7 |
| 20260906121509 | 57 | 355 | 0.0 | 0.0 | 0.00 | 0.11 | 0.07 | 95 | 1019.6 |
| 20260906120008 | 57 | 95 | 0.0 | 0.0 | 0.00 | 0.11 | 0.07 | 95 | 1019.6 |
| 20260906114507 | 57 | 95 | 0.0 | 0.0 | 0.00 | 0.11 | 0.07 | 95 | 1019.4 |
| 20260906113005 | 56 | 95 | 0.0 | 0.0 | 0.00 | 0.11 | 0.07 | 95 | 1019.2 |
| 20260906111505 | 55 | 95 | 0.0 | 0.0 | 0.00 | 0.11 | 0.07 | 95 | 1019.0 |
| 20260906110003 | 55 | 95 | 0.0 | 0.0 | 0.00 | 0.11 | 0.07 | 95 | 1019.0 |
| 20260906104503 | 55 | 95 | 0.0 | 0.0 | 0.00 | 0.11 | 0.07 | 95 | 1018.9 |
| 20260906103001 | 55 | 95 | 0.0 | 0.0 | 0.00 | 0.11 | 0.07 | 95 | 1018.7 |
| 20260906101600 | 55 | 95 | 0.0 | 0.0 | 0.00 | 0.11 | 0.07 | 95 | 1018.6 |
| 20260906100059 | 55 | 95 | 0.0 | 0.0 | 0.00 | 0.11 | 0.07 | 95 | 1018.5 |
| 20260906094557 | 55 | 95 | 0.0 | 0.0 | 0.00 | 0.11 | 0.07 | 95 | 1018.3 |
| 20260906093056 | 55 | 95 | 0.0 | 0.0 | 0.00 | 0.11 | 0.07 | 94 | 1018.1 |
| 20260906091556 | 55 | 95 | 0.0 | 0.0 | 0.01 | 0.11 | 0.07 | 94 | 1018.1 |
| 20260906090058 | 56 | 95 | 0.0 | 0.0 | 0.04 | 0.11 | 0.07 | 94 | 1018.2 |
| 20260906084555 | 56 | 95 | 0.0 | 0.0 | 0.06 | 0.11 | 0.07 | 94 | 1018.2 |
| 20260906083054 | 56 | 95 | 0.0 | 0.0 | 0.07 | 0.11 | 0.07 | 94 | 1018.2 |
| 20260906081555 | 56 | 95 | 0.0 | 0.0 | 0.06 | 0.10 | 0.06 | 94 | 1018.4 |
| 20260906080052 | 56 | 95 | 0.0 | 0.0 | 0.03 | 0.07 | 0.03 | 94 | 1017.9 |
| 20260906074549 | 56 | 95 | 0.0 | 0.0 | 0.01 | 0.05 | 0.01 | 94 | 1017.8 |
| 20260906073048 | 56 | 95 | 0.0 | 0.0 | 0.00 | 0.04 | 0.00 | 94 | 1017.8 |
| 20260906071558 | 56 | 95 | 0.0 | 0.0 | 0.00 | 0.04 | 0.00 | 94 | 1017.7 |
| 20260906070045 | 57 | 95 | 0.0 | 0.0 | 0.00 | 0.04 | 0.00 | 94 | 1017.6 |
| 20260906064544 | 57 | 95 | 0.0 | 0.0 | 0.00 | 0.04 | 0.00 | 94 | 1017.5 |
| 20260906063044 | 57 | 95 | 0.0 | 0.0 | 0.00 | 0.04 | 0.00 | 94 | 1017.4 |
| 20260906061543 | 57 | 95 | 0.0 | 0.0 | 0.00 | 0.04 | 0.00 | 94 | 1017.4 |
| 20260906060042 | 57 | 95 | 0.0 | 0.0 | 0.00 | 0.04 | 0.00 | 94 | 1017.4 |
| 20260906054540 | 58 | 95 | 0.0 | 0.0 | 0.00 | 0.04 | 0.00 | 94 | 1017.3 |
| 20260906053042 | 58 | 95 | 0.0 | 0.0 | 0.00 | 0.04 | 0.00 | 94 | 1017.4 |
| 20260906051536 | 59 | 95 | 0.0 | 0.0 | 0.00 | 0.04 | 0.00 | 94 | 1017.5 |
| 20260906050035 | 59 | 95 | 0.0 | 0.0 | 0.00 | 0.04 | 0.00 | 94 | 1017.5 |
| 20260906044533 | 59 | 95 | 0.0 | 0.0 | 0.00 | 0.04 | 0.00 | 94 | 1017.3 |
| 20260906043033 | 59 | 95 | 0.0 | 0.0 | 0.00 | 0.04 | 0.00 | 94 | 1017.2 |
| 20260906041528 | 60 | 95 | 0.0 | 0.0 | 0.00 | 0.04 | 0.00 | 94 | 1017.3 |
| 20260906040030 | 60 | 95 | 0.0 | 0.0 | 0.00 | 0.04 | 0.04 | 94 | 1017.3 |
| 20260906034533 | 59 | 95 | 0.0 | 0.0 | 0.00 | 0.04 | 0.04 | 94 | 1017.2 |
| 20260906033027 | 59 | 95 | 0.0 | 0.0 | 0.00 | 0.04 | 0.04 | 94 | 1017.0 |
| 20260906031521 | 59 | 95 | 0.0 | 0.0 | 0.00 | 0.04 | 0.04 | 94 | 1016.7 |
| 20260906030021 | 59 | 95 | 0.0 | 0.0 | 0.00 | 0.04 | 0.04 | 94 | 1016.7 |
| 20260906024520 | 60 | 95 | 0.0 | 0.0 | 0.00 | 0.04 | 0.04 | 93 | 1016.7 |
| 20260906023019 | 60 | 95 | 0.0 | 0.0 | 0.00 | 0.04 | 0.04 | 93 | 1016.6 |
| 20260906021523 | 60 | 95 | 0.0 | 0.0 | 0.00 | 0.04 | 0.04 | 93 | 1016.7 |
| 20260906020020 | 61 | 95 | 0.0 | 0.0 | 0.00 | 0.04 | 0.04 | 93 | 1016.7 |
| 20260906014531 | 61 | 95 | 0.0 | 0.0 | 0.00 | 0.04 | 0.04 | 93 | 1016.8 |
| 20260906013018 | 61 | 95 | 0.0 | 0.0 | 0.00 | 0.04 | 0.04 | 93 | 1016.9 |
| 20260906011532 | 61 | 95 | 0.0 | 0.0 | 0.00 | 0.04 | 0.04 | 93 | 1016.9 |
| 20260906010016 | 61 | 94 | 0.0 | 0.0 | 0.00 | 0.04 | 0.04 | 93 | 1016.8 |
| 20260906004526 | 61 | 95 | 0.0 | 0.0 | 0.00 | 0.04 | 0.04 | 93 | 1016.8 |
| 20260906003014 | 61 | 95 | 0.0 | 0.0 | 0.00 | 0.04 | 0.04 | 92 | 1016.6 |
| 20260906001512 | 61 | 95 | 0.0 | 0.0 | 0.00 | 0.04 | 0.04 | 92 | 1016.5 |
| 20260906000012 | 61 | 95 | 0.0 | 0.0 | 0.00 | 0.04 | 0.04 | 92 | 1016.3 |
| 20260905234511 | 62 | 95 | 0.0 | 0.0 | 0.00 | 0.04 | 0.04 | 91 | 1016.3 |
| 20260905233010 | 62 | 95 | 0.0 | 0.0 | 0.00 | 0.04 | 0.04 | 91 | 1016.1 |
| 20260905231510 | 63 | 95 | 0.0 | 0.0 | 0.00 | 0.04 | 0.04 | 91 | 1016.2 |
| 20260905230014 | 63 | 95 | 0.0 | 0.0 | 0.00 | 0.04 | 0.04 | 90 | 1016.2 |